DW5978 Whyalla SA AU current weather conditions

sailwx.info

Wind from 191 at 6 knots gusting 13

Air temperature 24.4° C
Dewpoint 12.7° C

Last reported at 2015-Mar-03 03:36 UTC.
Time now 2015-Mar-03 04:44 UTC

Location: S 33°01' E 137°32'.
View on Google Maps.

See reports from other nearby stations

  
Tides and Currents Weather Stations Pressure Air Temp Water Temp Dewpoint Dewpoint Depression Visibility Wind Speed Wind Dir Waves Ship Positions
date/time (UTC)wind fromknots sea level pressurealtimeterstation pressurevisibilityair tempwater tempwave heightnotes
2015-Mar-03 03:36 191 6 gusting 13 24.4
2015-Mar-03 03:22 188 7 gusting 13 25.0
2015-Mar-03 03:04 199 6 gusting 15 24.4
2015-Mar-03 02:54 204 8 gusting 13 23.9
2015-Mar-03 02:34 193 8 gusting 15 23.3
2015-Mar-03 02:18 190 8 gusting 15 23.3
2015-Mar-03 02:06 176 6 gusting 14 22.8
2015-Mar-03 01:48 126 6 gusting 12 22.8
2015-Mar-03 01:34 131 6 gusting 13 22.2
2015-Mar-03 01:18 167 6 gusting 13 22.2
2015-Mar-03 01:03 136 6 gusting 13 22.2
2015-Mar-03 00:48 195 6 gusting 14 22.2
2015-Mar-03 00:18 160 8 gusting 13 21.7
2015-Mar-03 00:03 156 6 gusting 12 21.1
2015-Mar-02 23:48 148 4 gusting 11 21.1
2015-Mar-02 23:33 191 4 gusting 11 21.1
2015-Mar-02 23:18 194 5 gusting 10 21.1
2015-Mar-02 23:03 201 5 gusting 10 20.6
2015-Mar-02 22:48 181 3 gusting 12 20.6
2015-Mar-02 22:33 224 4 gusting 10 20.6
2015-Mar-02 22:18 154 5 gusting 11 20.6
2015-Mar-02 22:03 193 6 gusting 11 20.6
2015-Mar-02 21:48 170 2 gusting 9 20.6
2015-Mar-02 21:33 156 4 gusting 9 20.0
2015-Mar-02 21:18 170 3 gusting 8 20.0
2015-Mar-02 21:03 190 2 gusting 8 20.0
2015-Mar-02 20:48 179 3 gusting 8 20.0
2015-Mar-02 20:33 167 3 gusting 6 20.0
2015-Mar-02 20:18 165 3 gusting 7 20.0
2015-Mar-02 20:03 188 4 20.0
2015-Mar-02 19:48 184 3 gusting 7 20.0
2015-Mar-02 19:33 162 5 gusting 8 20.0
2015-Mar-02 19:18 133 3 gusting 6 20.0
2015-Mar-02 19:03 188 3 gusting 7 20.0
2015-Mar-02 18:48 127 3 gusting 7 20.0
2015-Mar-02 18:33 143 3 gusting 9 20.0
2015-Mar-02 18:18 165 4 gusting 9 20.0
2015-Mar-02 18:03 156 4 gusting 9 20.0
2015-Mar-02 17:48 145 5 gusting 11 20.0
2015-Mar-02 17:33 148 3 gusting 10 20.6
2015-Mar-02 17:17 145 3 gusting 9 20.6
2015-Mar-02 17:02 160 4 gusting 8 20.6
2015-Mar-02 16:47 165 4 gusting 11 20.6
2015-Mar-02 16:32 154 4 gusting 8 20.6
2015-Mar-02 16:17 146 4 gusting 8 20.6
2015-Mar-02 16:02 199 5 gusting 12 20.6
2015-Mar-02 15:47 162 4 gusting 9 20.6
2015-Mar-02 15:32 156 5 gusting 9 20.6
2015-Mar-02 15:17 148 5 gusting 9 20.6
2015-Mar-02 15:02 179 5 gusting 9 20.6
2015-Mar-02 14:47 160 6 gusting 10 20.6
2015-Mar-02 14:32 165 2 gusting 9 20.6
2015-Mar-02 14:17 148 6 gusting 12 20.6
2015-Mar-02 14:02 215 6 gusting 13 20.6
2015-Mar-02 13:47 204 6 gusting 13 20.6
2015-Mar-02 13:32 210 6 gusting 12 20.6
2015-Mar-02 13:17 181 5 gusting 9 20.6
2015-Mar-02 13:02 177 4 gusting 13 21.1
2015-Mar-02 12:47 139 6 gusting 13 21.1
2015-Mar-02 12:32 136 5 gusting 12 21.1
2015-Mar-02 12:17 177 6 gusting 12 21.1
2015-Mar-02 12:02 213 7 gusting 15 21.1
2015-Mar-02 11:47 151 6 gusting 14 21.7
2015-Mar-02 11:32 142 9 gusting 16 21.7
2015-Mar-02 11:17 217 6 gusting 10 21.1
2015-Mar-02 11:02 240 4 gusting 10 21.1
2015-Mar-02 10:47 212 4 gusting 12 21.1
2015-Mar-02 10:32 201 6 gusting 13 21.1
2015-Mar-02 10:17 204 7 gusting 13 21.1
2015-Mar-02 09:47 162 5 gusting 13 21.7
2015-Mar-02 09:32 186 5 gusting 13 22.2
2015-Mar-02 09:17 197 6 gusting 15 22.2
2015-Mar-02 09:02 218 6 gusting 13 22.2
2015-Mar-02 08:47 170 6 gusting 18 22.2
2015-Mar-02 08:32 190 9 gusting 17 22.2
2015-Mar-02 08:17 252 10 gusting 19 22.8
2015-Mar-02 08:02 170 8 gusting 16 23.3
2015-Mar-02 07:47 157 6 gusting 18 23.3
2015-Mar-02 07:32 187 11 gusting 19 23.3
2015-Mar-02 07:17 184 9 gusting 19 23.9
2015-Mar-02 07:02 174 6 gusting 15 25.0
2015-Mar-02 06:47 169 6 gusting 13 26.7
2015-Mar-02 06:32 181 6 gusting 13 26.7
2015-Mar-02 06:17 132 6 gusting 11 27.8
2015-Mar-02 06:02 117 4 gusting 9 28.3
2015-Mar-02 05:47 133 4 gusting 9 28.9
2015-Mar-02 05:32 134 5 gusting 9 28.9
2015-Mar-02 05:17 138 4 gusting 11 28.3
2015-Mar-02 05:02 139 6 gusting 9 28.9
2015-Mar-02 04:47 148 5 gusting 9 29.4
2015-Mar-02 04:32 194 5 gusting 9 30.0
2015-Mar-02 04:16 157 4 gusting 9 30.0
2015-Mar-02 04:01 131 4 gusting 8 30.0
2015-Mar-02 03:46 073 4 gusting 9 30.0
2015-Mar-02 03:31 138 2 gusting 6 29.4
2015-Mar-02 03:16 173 4 gusting 6 28.3
2015-Mar-02 03:01 123 2 gusting 8 28.9
2015-Mar-02 02:46 252 0 gusting 6 28.9
2015-Mar-02 02:31 131 0 gusting 6 28.9
2015-Mar-02 02:16 131 2 gusting 6 28.9
2015-Mar-02 02:01 277 0 gusting 6 27.8
2015-Mar-02 01:46 140 1 gusting 6 27.8
2015-Mar-02 01:31 246 1 gusting 6 28.3
2015-Mar-02 01:16 086 2 gusting 6 27.2
2015-Mar-02 01:01 036 1 gusting 5 27.2
2015-Mar-02 00:46 133 0 gusting 7 26.1
2015-Mar-02 00:31 078 4 gusting 6 25.6
2015-Mar-02 00:16 072 2 gusting 5 25.0
2015-Mar-02 00:01 144 1 gusting 6 25.0
2015-Mar-01 23:46 123 1 gusting 3 23.9
2015-Mar-01 23:31 201 0 gusting 3 22.2
2015-Mar-01 23:16 243 1 gusting 3 21.1
2015-Mar-01 23:02 315 20.0
2015-Mar-01 22:46 314 19.4
2015-Mar-01 22:30 314 18.3
2015-Mar-01 22:15 314 17.2
2015-Mar-01 22:00 315 16.1
2015-Mar-01 21:45 314 15.6
2015-Mar-01 21:30 314 0 gusting 2 15.0
2015-Mar-01 21:15 315 14.4
2015-Mar-01 21:00 315 15.0
2015-Mar-01 20:45 314 15.0
2015-Mar-01 20:30 315 15.6
2015-Mar-01 20:15 314 15.0
2015-Mar-01 20:00 314 15.0
2015-Mar-01 19:45 314 15.0
2015-Mar-01 19:30 314 15.6
2015-Mar-01 19:15 315 0 gusting 1 15.6
2015-Mar-01 19:00 315 15.0
2015-Mar-01 18:45 315 0 gusting 1 15.6
2015-Mar-01 18:30 315 0 gusting 1 15.6
2015-Mar-01 18:15 314 15.6
2015-Mar-01 18:00 315 0 gusting 1 15.6
2015-Mar-01 17:45 291 0 gusting 1 15.6
2015-Mar-01 17:30 291 0 gusting 2 15.6
2015-Mar-01 17:15 284 0 gusting 2 15.6
2015-Mar-01 17:00 145 16.7
2015-Mar-01 16:45 145 17.8
2015-Mar-01 16:30 148 18.3
2015-Mar-01 16:15 148 0 gusting 2 18.3
2015-Mar-01 16:00 141 1 gusting 4 18.9
2015-Mar-01 15:45 156 1 gusting 5 18.9
2015-Mar-01 15:30 160 0 gusting 3 18.9
2015-Mar-01 15:15 160 1 gusting 4 18.9
2015-Mar-01 15:00 142 0 gusting 3 18.9
2015-Mar-01 14:45 174 1 gusting 6 19.4
2015-Mar-01 14:30 148 2 gusting 6 18.9
2015-Mar-01 14:15 165 1 gusting 6 18.9
2015-Mar-01 14:00 188 3 gusting 7 18.9
2015-Mar-01 13:45 192 3 gusting 6 18.9
2015-Mar-01 13:29 153 3 gusting 7 19.4
2015-Mar-01 13:14 145 3 gusting 7 19.4
2015-Mar-01 12:59 153 3 gusting 9 19.4
2015-Mar-01 12:44 145 4 gusting 9 19.4
2015-Mar-01 12:29 153 4 gusting 8 19.4
2015-Mar-01 12:14 162 4 gusting 13 20.0
2015-Mar-01 11:59 096 4 gusting 9 20.0
2015-Mar-01 11:44 136 3 gusting 7 20.6
2015-Mar-01 11:29 136 5 gusting 11 20.6
2015-Mar-01 11:14 160 5 gusting 11 21.1
2015-Mar-01 10:59 131 3 gusting 8 20.6
2015-Mar-01 10:44 200 3 gusting 12 20.6
2015-Mar-01 10:29 150 4 gusting 8 20.6
2015-Mar-01 10:14 186 6 gusting 11 20.6
2015-Mar-01 09:59 190 7 gusting 13 21.1
2015-Mar-01 09:44 219 7 gusting 15 21.1
2015-Mar-01 09:29 143 6 gusting 18 21.1
2015-Mar-01 09:14 210 7 gusting 14 21.7
2015-Mar-01 08:59 195 8 gusting 16 21.7
2015-Mar-01 08:44 208 8 gusting 19 21.7
2015-Mar-01 08:29 221 9 gusting 19 22.2
2015-Mar-01 08:14 204 11 gusting 17 22.8
2015-Mar-01 07:59 193 10 gusting 14 22.8
2015-Mar-01 07:44 202 10 gusting 17 22.8
2015-Mar-01 07:29 167 8 gusting 17 23.3
2015-Mar-01 07:14 186 9 gusting 18 22.8
2015-Mar-01 06:59 156 11 gusting 19 22.8
2015-Mar-01 06:44 184 11 gusting 18 22.8
2015-Mar-01 06:29 172 7 gusting 19 22.8
2015-Mar-01 06:14 208 10 gusting 20 22.2
2015-Mar-01 05:59 201 11 gusting 19 22.8
2015-Mar-01 05:44 167 8 gusting 16 22.8
2015-Mar-01 05:29 188 11 gusting 18 22.8
2015-Mar-01 05:14 186 7 gusting 16 22.8
2015-Mar-01 04:59 194 8 gusting 15 22.8
2015-Mar-01 04:44 203 7 gusting 17 22.8
2015-Mar-01 04:29 219 10 gusting 19 22.2
2015-Mar-01 04:14 212 8 gusting 14 22.8